M I D A S
Marine Information and Data Acquisition System
Tripno 1897 of the Zeeleeuw from 2010-06-09 06:11:34 to 2010-06-09 17:16:18
Back to CruiseResearch ActivitiesStationsMapUnderway DataData graphs

EquipmentUnitsComment
TimeDGPSUTC
LatitudeDGPSDM.mWGS84
LongitudeDGPSDM.mWGS84
TemperatureSBE03/SBE38deg celciusITS90
ConductivitySBE21S/mITS90
SalinitySBE21 Practical Salinity Units
ChlorophylAChelsea fluorimeterg/lCalibrated in Aceton
Missing or incorrect values are displayed as -999
Sea surface data collected by the RV Zeeleeuw from 2010-06-09 06:11:27 to 2010-06-09 17:31:48
Time Latitude Longitude Temperature Conductivity Salinity ChlorophylA
2010-06-09 06:12:32 51°13.662 2°55.959 21.4272 0.291385 1.622594 -1.000568
2010-06-09 06:13:32 51°13.662 2°55.959 21.4697 0.291385 1.622619 -1.035392
2010-06-09 06:14:32 51°13.661 2°55.959 21.4626 0.291385 1.62267 -1.000568
2010-06-09 06:15:36 51°13.676 2°55.895 21.3938 0.291385 1.62272 -1.035392
2010-06-09 06:16:35 51°13.687 2°55.794 21.4247 0.291385 1.622695 -1.000568
2010-06-09 06:17:33 51°13.692 2°55.769 21.4398 0.291385 1.622745 -1.035392
2010-06-09 06:18:32 51°13.686 2°55.751 21.4435 0.291385 1.622821 -1.035392
2010-06-09 06:19:33 51°13.704 2°55.739 21.4983 0.291385 1.622922 -1.000568
2010-06-09 06:20:32 51°13.778 2°55.676 21.3623 0.291385 1.622897 -1.000568
2010-06-09 06:21:32 51°13.898 2°55.583 21.3792 0.291385 1.622948 -1.035392
2010-06-09 06:22:32 51°14.035 2°55.483 21.4049 0.291385 1.623023 -1.000568
2010-06-09 06:23:32 51°14.181 2°55.365 21.4161 0.291385 1.623099 -1.035392
2010-06-09 06:24:32 51°14.332 2°55.229 21.401 0.291385 1.62315 -1.000568
2010-06-09 06:25:33 51°14.486 2°55.07 21.3857 0.291385 1.6232 -1.000568
2010-06-09 06:26:32 51°14.641 2°54.918 21.3424 0.291281 1.622713 -1.035392
2010-06-09 06:27:32 51°14.807 2°54.783 21.353 0.291281 1.622662 -1.035392
2010-06-09 06:28:32 51°15.001 2°54.655 21.3318 0.291281 1.622637 -1.000568
2010-06-09 06:29:32 51°15.187 2°54.491 21.2638 0.291281 1.622586 -1.035392
2010-06-09 06:30:33 51°15.385 2°54.329 21.2683 0.291281 1.622864 -1.035392
2010-06-09 06:31:33 51°15.576 2°54.146 21.2832 0.291281 1.622915 -1.000568
2010-06-09 06:32:33 51°15.765 2°53.963 21.2925 0.291281 1.622965 -1.000568
2010-06-09 06:33:33 51°15.941 2°53.756 21.2469 0.291385 1.623655 -1.035392
2010-06-09 06:34:33 51°16.118 2°53.55 21.2901 0.291281 1.623092 -1.000568
2010-06-09 06:35:33 51°16.296 2°53.343 21.2549 0.291281 1.623193 -1.035392
2010-06-09 06:36:33 51°16.474 2°53.145 21.2655 0.291281 1.623244 -1.000568
2010-06-09 06:37:33 51°16.66 2°52.971 21.2659 0.291281 1.623319 -1.000568
2010-06-09 06:38:33 51°16.845 2°52.805 21.2419 0.291281 1.623421 -1.000568
2010-06-09 06:39:33 51°17.04 2°52.677 21.3001 0.291281 1.623522 -1.000568
2010-06-09 06:40:33 51°17.244 2°52.608 21.3093 0.291281 1.623598 -1.000568
2010-06-09 06:41:33 51°17.451 2°52.563 21.3054 0.291281 1.623674 -1.035392
2010-06-09 06:42:33 51°17.657 2°52.508 21.3211 0.291281 1.623749 -1.035392
2010-06-09 06:43:33 51°17.861 2°52.439 21.3252 0.291281 1.623851 -1.035392
2010-06-09 06:44:33 51°18.067 2°52.37 21.3292 0.291281 1.623952 -1.000568
2010-06-09 06:45:33 51°18.273 2°52.301 21.336 0.291281 1.624053 -1.035392
2010-06-09 06:46:33 51°18.48 2°52.23 21.3566 0.291281 1.62418 -1.000568
2010-06-09 06:47:33 51°18.686 2°52.157 21.353 0.291281 1.624256 -1.035392
2010-06-09 06:48:33 51°18.893 2°52.079 21.36 0.291281 1.624357 -1.000568
2010-06-09 06:49:33 51°19.1 2°52.001 21.3738 0.291281 1.624433 -1.000568
2010-06-09 06:50:33 51°19.308 2°51.925 21.3719 0.291281 1.624534 -1.000568
2010-06-09 06:51:33 51°19.517 2°51.85 21.3614 0.291176 1.623945 -1.035392
2010-06-09 06:52:33 51°19.722 2°51.776 21.3732 0.291176 1.624046 -1.000568
2010-06-09 06:53:33 51°19.904 2°51.719 21.3871 0.291072 1.623482 -1.000568
2010-06-09 06:54:33 51°20.082 2°51.662 21.3964 0.291072 1.623533 -1.035392
2010-06-09 06:55:33 51°20.285 2°51.603 21.4035 0.291072 1.623584 -1.000568
2010-06-09 06:56:33 51°20.499 2°51.546 21.3946 0.290968 1.62302 -1.035392
2010-06-09 06:57:33 51°20.713 2°51.484 21.4153 0.290968 1.623045 -1.000568
2010-06-09 06:58:55 51°21.007 2°51.395 21.4249 0.290968 1.623146 -1.000568
2010-06-09 07:00:08 51°21.268 2°51.298 21.4192 0.290968 1.623222 -1.035392
2010-06-09 07:01:08 51°21.482 2°51.197 21.4543 0.290968 1.623248 -1.035392
2010-06-09 07:02:07 51°21.682 2°51.059 21.425 0.290864 1.622759 -1.000568
2010-06-09 07:03:07 51°21.886 2°50.925 21.4427 0.290864 1.622886 -1.000568
2010-06-09 07:04:07 51°22.098 2°50.835 21.4596 0.290864 1.622962 -1.000568
2010-06-09 07:05:08 51°22.314 2°50.756 21.4597 0.290864 1.623063 -1.000568
2010-06-09 07:06:08 51°22.527 2°50.679 21.4711 0.290864 1.623139 -1.035392
2010-06-09 07:07:08 51°22.743 2°50.613 21.4822 0.290864 1.623241 -1.035392
2010-06-09 07:08:08 51°22.957 2°50.547 21.4778 0.290968 1.623982 -1.000568
2010-06-09 07:09:08 51°23.171 2°50.479 21.4942 0.290864 1.623494 -1.000568
2010-06-09 07:10:07 51°23.38 2°50.406 21.4921 0.290864 1.623621 -1.035392
2010-06-09 07:11:07 51°23.593 2°50.33 21.4991 0.290864 1.623773 -1.000568
2010-06-09 07:12:07 51°23.808 2°50.252 21.5071 0.290968 1.624566 -1.000568
2010-06-09 07:13:08 51°24.028 2°50.173 21.5128 0.290968 1.624743 -1.000568
2010-06-09 07:14:07 51°24.24 2°50.1 21.5261 0.291072 1.625536 -1.035392
2010-06-09 07:15:08 51°24.458 2°50.02 21.5088 0.291072 1.625689 -1.035392
2010-06-09 07:16:08 51°24.673 2°49.939 21.535 0.291072 1.625943 -1.000568
2010-06-09 07:17:07 51°24.884 2°49.86 21.528 0.291072 1.626146 -1.035392
2010-06-09 07:18:07 51°25.1 2°49.778 21.5505 0.291072 1.626349 -1.000568
2010-06-09 07:19:08 51°25.32 2°49.696 21.5418 0.291176 1.627169 -1.000568
2010-06-09 07:20:07 51°25.535 2°49.615 21.5511 0.291176 1.627372 -1.035392
2010-06-09 07:21:07 51°25.755 2°49.535 21.5589 0.291072 1.626909 -1.035392
2010-06-09 07:22:07 51°25.976 2°49.455 21.5764 0.291176 1.627805 -1.000568
2010-06-09 07:23:07 51°26.196 2°49.373 21.5821 0.291176 1.627983 -1.000568
2010-06-09 07:24:08 51°26.421 2°49.296 21.5853 0.291176 1.628212 -1.035392
2010-06-09 07:25:08 51°26.637 2°49.219 21.5731 0.291176 1.628365 -1.000568
2010-06-09 07:26:08 51°26.851 2°49.14 21.601 0.291176 1.62862 -1.000568
2010-06-09 07:27:08 51°27.067 2°49.06 21.6059 0.291072 1.628182 -1.000568
2010-06-09 07:28:08 51°27.285 2°48.982 21.6045 0.291072 1.628463 -1.000568
2010-06-09 07:29:08 51°27.502 2°48.899 21.6143 0.291072 1.628743 -1.035392
2010-06-09 07:30:08 51°27.72 2°48.819 21.6254 0.291072 1.628922 -1.000568
2010-06-09 07:31:07 51°27.935 2°48.741 21.6261 0.291072 1.6291 -1.035392
2010-06-09 07:32:07 51°28.155 2°48.662 21.6447 0.291072 1.629253 -1.035392
2010-06-09 07:33:08 51°28.38 2°48.585 21.6363 0.290968 1.628815 -1.000568
2010-06-09 07:34:08 51°28.602 2°48.509 21.6432 0.291072 1.629688 -1.035392
2010-06-09 07:35:07 51°28.823 2°48.436 21.6572 0.290968 1.629275 -1.000568
2010-06-09 07:36:07 51°29.047 2°48.368 21.6537 0.290864 1.628862 -1.000568
2010-06-09 07:37:08 51°29.267 2°48.303 21.6657 0.290864 1.629015 -1.000568
2010-06-09 07:38:07 51°29.478 2°48.241 21.6731 0.290864 1.629245 -1.035392
2010-06-09 07:39:08 51°29.697 2°48.174 21.6762 0.290759 1.628832 -1.035392
2010-06-09 07:40:08 51°29.913 2°48.105 21.683 0.290759 1.62896 -1.035392
2010-06-09 07:41:08 51°30.13 2°48.033 21.6732 0.290759 1.62919 -1.035392
2010-06-09 07:42:08 51°30.347 2°47.961 21.6892 0.290655 1.628854 -1.035392
2010-06-09 07:43:07 51°30.561 2°47.886 21.692 0.290551 1.628543 -1.035392
2010-06-09 07:44:07 51°30.78 2°47.808 21.7023 0.290551 1.628748 -1.035392
2010-06-09 07:45:07 51°31.001 2°47.732 21.7078 0.290551 1.628901 -1.000568
2010-06-09 07:46:08 51°31.226 2°47.654 21.6957 0.290447 1.628462 -1.035392
2010-06-09 07:47:08 51°31.448 2°47.577 21.7123 0.290447 1.628744 -1.000568
2010-06-09 07:48:07 51°31.668 2°47.502 21.7149 0.290447 1.629051 -1.035392
2010-06-09 07:49:08 51°31.897 2°47.427 21.7343 0.290342 1.628688 -1.035392
2010-06-09 07:50:07 51°32.118 2°47.357 21.7291 0.290342 1.62897 -1.000568
2010-06-09 07:51:07 51°32.342 2°47.286 21.7318 0.290238 1.628582 -1.035392
2010-06-09 07:52:07 51°32.565 2°47.216 21.7455 0.290238 1.628992 -1.035392
2010-06-09 07:53:07 51°32.786 2°47.147 21.7343 0.290134 1.628578 -1.035392
2010-06-09 07:54:08 51°33.011 2°47.069 21.7517 0.290134 1.628963 -1.000568
2010-06-09 07:55:08 51°33.227 2°46.98 21.7658 0.290134 1.629219 -1.000568
2010-06-09 07:56:07 51°33.441 2°46.894 21.7547 0.29003 1.628857 -1.035392
2010-06-09 07:57:07 51°33.659 2°46.806 21.7652 0.29003 1.629139 -1.035392
2010-06-09 07:58:08 51°33.88 2°46.716 21.7722 0.29003 1.629472 -1.000568
2010-06-09 07:59:08 51°34.098 2°46.627 21.7782 0.29003 1.629729 -1.000568
2010-06-09 08:00:07 51°34.311 2°46.538 21.7771 0.289926 1.629417 -1.035392
2010-06-09 08:01:08 51°34.532 2°46.446 21.7923 0.289926 1.629674 -1.035392
2010-06-09 08:02:07 51°34.743 2°46.358 21.7744 0.289926 1.629982 -1.000568
2010-06-09 08:03:16 51°34.989 2°46.256 21.7991 0.289926 1.630239 -1.035392
2010-06-09 08:04:15 51°35.199 2°46.168 21.8016 0.289926 1.630522 -1.000568
2010-06-09 08:05:16 51°35.416 2°46.085 21.8064 0.289821 1.630134 -1.000568
2010-06-09 08:06:16 51°35.629 2°46.006 21.8093 0.289821 1.630442 -1.035392
2010-06-09 08:07:16 51°35.843 2°45.919 21.8176 0.289821 1.630751 -1.000568
2010-06-09 08:08:16 51°36.058 2°45.83 21.8141 0.289717 1.63044 -1.000568
2010-06-09 08:09:16 51°36.274 2°45.74 21.8096 0.289717 1.630723 -1.000568
2010-06-09 08:10:16 51°36.491 2°45.65 21.8133 0.289717 1.631006 -1.035392
2010-06-09 08:11:15 51°36.706 2°45.56 21.8283 0.289613 1.630926 -1.035392
2010-06-09 08:12:16 51°36.93 2°45.465 21.8242 0.289509 1.630177 -1.000568
2010-06-09 08:13:15 51°37.147 2°45.373 21.8325 0.289509 1.630641 -1.035392
2010-06-09 08:14:15 51°37.369 2°45.282 21.8446 0.289509 1.630924 -1.035392
2010-06-09 08:15:16 51°37.594 2°45.19 21.8414 0.289404 1.630587 -1.000568
2010-06-09 08:16:16 51°37.816 2°45.101 21.8405 0.289404 1.63087 -1.000568
2010-06-09 08:17:16 51°38.037 2°45.011 21.8519 0.2893 1.630559 -1.000568
2010-06-09 08:18:16 51°38.256 2°44.92 21.8528 0.2893 1.630868 -1.035392
2010-06-09 08:19:16 51°38.475 2°44.829 21.8522 0.289196 1.630531 -1.000568
2010-06-09 08:20:16 51°38.694 2°44.739 21.8685 0.289196 1.630789 -1.000568
2010-06-09 08:21:16 51°38.912 2°44.649 21.8632 0.289196 1.631125 -1.000568
2010-06-09 08:22:15 51°39.125 2°44.564 21.8666 0.289092 1.630839 -1.000568
2010-06-09 08:23:16 51°39.345 2°44.479 21.8767 0.289092 1.6312 -1.000568
2010-06-09 08:24:16 51°39.562 2°44.394 21.8801 0.288987 1.630992 -1.035392
2010-06-09 08:25:16 51°39.778 2°44.309 21.8664 0.288987 1.631379 -1.000568
2010-06-09 08:26:16 51°39.995 2°44.224 21.8834 0.288987 1.631716 -1.000568
2010-06-09 08:27:16 51°40.212 2°44.14 21.8843 0.288883 1.63143 -1.035392
2010-06-09 08:28:16 51°40.43 2°44.058 21.8946 0.288883 1.631766 -1.000568
2010-06-09 08:29:16 51°40.646 2°43.979 21.8988 0.288883 1.632128 -1.035392
2010-06-09 08:30:16 51°40.863 2°43.898 21.8979 0.288779 1.631868 -1.000568
2010-06-09 08:31:15 51°41.075 2°43.809 21.9041 0.288779 1.632153 -1.035392
2010-06-09 08:32:16 51°41.294 2°43.718 21.8877 0.288779 1.632516 -1.000568
2010-06-09 08:33:15 51°41.505 2°43.635 21.8896 0.288779 1.632879 -1.000568
2010-06-09 08:34:16 51°41.725 2°43.547 21.8942 0.288675 1.632619 -1.000568
2010-06-09 08:35:15 51°41.937 2°43.462 21.9117 0.288675 1.632982 -1.000568
2010-06-09 08:36:16 51°42.158 2°43.375 21.9164 0.288675 1.633346 -1.035392
2010-06-09 08:37:16 51°42.375 2°43.29 21.9175 0.288675 1.633709 -1.035392
2010-06-09 08:38:16 51°42.592 2°43.205 21.9234 0.288675 1.633969 -1.035392
2010-06-09 08:39:16 51°42.809 2°43.121 21.9254 0.288675 1.634385 -1.035392
2010-06-09 08:40:16 51°43.026 2°43.036 21.9286 0.288571 1.634047 -1.035392
2010-06-09 08:41:16 51°43.243 2°42.952 21.9312 0.288571 1.634411 -1.000568
2010-06-09 08:42:15 51°43.458 2°42.869 21.923 0.288571 1.634801 -1.000568
2010-06-09 08:43:15 51°43.677 2°42.784 21.9334 0.288571 1.635192 -1.000568
2010-06-09 08:44:16 51°43.899 2°42.696 21.9275 0.288571 1.63553 -1.000568
2010-06-09 08:45:16 51°44.11 2°42.575 21.926 0.288571 1.635869 -1.035392
2010-06-09 08:46:16 51°44.316 2°42.434 21.9404 0.288571 1.636156 -1.000568
2010-06-09 08:47:16 51°44.481 2°42.324 21.9525 0.288466 1.636027 -1.000568
2010-06-09 08:48:16 51°44.604 2°42.246 21.9959 0.288466 1.636496 -1.035392
2010-06-09 08:49:15 51°44.721 2°42.169 21.9727 0.288466 1.636836 -1.035392
2010-06-09 08:50:16 51°44.842 2°42.087 21.9687 0.288571 1.637749 -1.000568
2010-06-09 08:51:15 51°44.943 2°42.014 21.9672 0.288466 1.637515 -1.000568
2010-06-09 08:52:16 51°45.007 2°41.96 21.9656 0.288466 1.637855 -1.035392
2010-06-09 08:53:16 51°45.029 2°41.925 21.9604 0.288466 1.638195 -1.000568
2010-06-09 08:54:15 51°45.032 2°41.921 21.959 0.288362 1.637752 -1.000568
2010-06-09 08:55:16 51°45.034 2°41.918 21.9595 0.288362 1.638066 -1.000568
2010-06-09 08:56:15 51°45.035 2°41.915 21.9594 0.288362 1.638433 -1.035392
2010-06-09 08:57:16 51°45.036 2°41.911 21.9606 0.288362 1.638852 -1.035392
2010-06-09 08:58:15 51°45.036 2°41.908 21.9647 0.288258 1.638697 -1.035392
2010-06-09 08:59:16 51°45.036 2°41.908 21.9575 0.288258 1.639012 -1.035392
2010-06-09 09:00:16 51°45.037 2°41.909 21.9542 0.288258 1.639143 -1.000568
2010-06-09 09:01:16 51°45.037 2°41.912 21.9559 0.288154 1.638674 -1.000568
2010-06-09 09:02:15 51°45.037 2°41.917 21.5987 0.288154 1.638857 -1.000568
2010-06-09 09:03:16 51°45.038 2°41.923 21.645 0.288049 1.63844 -0.965744
2010-06-09 09:06:19 51°45.041 2°41.933 21.6717 0.287841 1.637868 -0.965744
2010-06-09 09:07:20 51°45.042 2°41.934 21.6712 0.287737 1.637477 -0.965744
2010-06-09 09:08:19 51°45.044 2°41.936 21.6757 0.287737 1.63774 -1.000568
2010-06-09 09:09:19 51°45.045 2°41.937 21.6702 0.287632 1.637349 -0.965744
2010-06-09 09:10:19 51°45.048 2°41.937 21.6778 0.287528 1.63701 -0.965744
2010-06-09 09:11:20 51°45.05 2°41.938 21.6825 0.287424 1.636514 -1.000568
2010-06-09 09:12:19 51°45.051 2°41.938 21.6856 0.287424 1.636671 -0.965744
2010-06-09 09:13:19 51°45.053 2°41.939 21.6891 0.28732 1.636306 -1.000568
2010-06-09 09:14:20 51°45.055 2°41.939 21.6968 0.287215 1.635967 -1.000568
2010-06-09 09:15:20 51°45.057 2°41.941 21.6957 0.287111 1.635497 -0.965744
2010-06-09 09:16:20 51°45.06 2°41.942 21.6967 0.287007 1.635105 -0.965744
2010-06-09 09:17:19 51°45.062 2°41.942 21.7022 0.286903 1.634582 -1.000568
2010-06-09 09:18:19 51°45.064 2°41.943 21.7077 0.286798 1.634217 -0.965744
2010-06-09 09:19:20 51°45.066 2°41.944 21.7051 0.286694 1.633825 -1.000568
2010-06-09 09:20:20 51°45.068 2°41.946 21.7118 0.286694 1.634087 -1.000568
2010-06-09 09:21:19 51°45.071 2°41.947 21.7119 0.28659 1.633643 -1.000568
2010-06-09 09:22:19 51°45.073 2°41.949 21.7144 0.286486 1.633224 -0.965744
2010-06-09 09:23:19 51°45.076 2°41.952 21.719 0.286381 1.63278 -0.965744
2010-06-09 09:24:20 51°45.078 2°41.955 21.7178 0.286381 1.632911 -0.965744
2010-06-09 09:25:20 51°45.026 2°41.949 21.7324 0.286277 1.632387 -1.000568
2010-06-09 09:26:19 51°44.9 2°41.809 21.7426 0.286173 1.6321 -1.000568
2010-06-09 09:27:19 51°44.762 2°41.564 21.7443 0.286173 1.632284 -0.93092
2010-06-09 09:28:19 51°44.608 2°41.333 21.748 0.286173 1.632546 -1.000568
2010-06-09 09:29:19 51°44.454 2°41.103 21.7415 0.286069 1.632101 -0.965744
2010-06-09 09:30:19 51°44.304 2°40.872 21.7516 0.286069 1.632285 -0.93092
2010-06-09 09:31:19 51°44.153 2°40.645 21.7436 0.285964 1.631971 -0.965744
2010-06-09 09:32:19 51°44.003 2°40.414 21.7448 0.28586 1.631526 -0.965744
2010-06-09 09:33:19 51°43.853 2°40.182 21.7447 0.28586 1.631867 -0.965744
2010-06-09 09:34:19 51°43.705 2°39.953 21.7466 0.28586 1.632103 -1.000568
2010-06-09 09:35:19 51°43.554 2°39.722 21.7444 0.285756 1.631842 -0.965744
2010-06-09 09:36:19 51°43.4 2°39.5 21.7472 0.285756 1.632026 -1.000568
2010-06-09 09:37:19 51°43.246 2°39.279 21.7568 0.285652 1.631607 -0.965744
2010-06-09 09:38:20 51°43.089 2°39.054 21.748 0.285652 1.631896 -0.965744
2010-06-09 09:39:19 51°42.938 2°38.837 21.7483 0.285652 1.632132 -0.965744
2010-06-09 09:40:19 51°42.791 2°38.601 21.7497 0.285443 1.630164 -0.965744
2010-06-09 09:41:19 51°42.646 2°38.362 21.7481 0.285339 1.63069 -0.965744
2010-06-09 09:42:19 51°42.492 2°38.141 21.7478 0.285339 1.6309 -0.965744
2010-06-09 09:43:20 51°42.342 2°37.905 21.7528 0.285339 1.631321 -1.000568
2010-06-09 09:44:19 51°42.206 2°37.686 21.7482 0.285339 1.631689 -1.000568
2010-06-09 09:45:19 51°42.112 2°37.553 21.7465 0.285339 1.631952 -0.965744
2010-06-09 09:46:20 51°42.036 2°37.451 21.7455 0.285235 1.63148 -1.000568
2010-06-09 09:47:19 51°41.989 2°37.351 21.746 0.285235 1.631796 -0.965744
2010-06-09 09:48:20 51°41.95 2°37.314 21.7452 0.285131 1.631482 -1.000568
2010-06-09 09:49:20 51°41.927 2°37.323 21.7457 0.285131 1.631666 -0.965744
2010-06-09 09:50:19 51°41.903 2°37.319 21.7439 0.285026 1.631167 -0.965744
2010-06-09 09:51:20 51°41.899 2°37.308 21.7421 0.285026 1.63143 -0.965744
2010-06-09 09:52:19 51°41.913 2°37.288 21.7421 0.285026 1.631667 -0.965744
2010-06-09 09:53:20 51°41.928 2°37.295 21.7423 0.284922 1.631247 -0.965744
2010-06-09 09:54:20 51°41.943 2°37.307 21.743 0.284922 1.631353 -0.965744
2010-06-09 09:55:19 51°41.958 2°37.322 21.7408 0.284818 1.630906 -0.93092
2010-06-09 09:56:19 51°41.974 2°37.339 21.7404 0.284818 1.631065 -0.965744
2010-06-09 09:57:19 51°41.989 2°37.358 21.7419 0.284818 1.631302 -0.965744
2010-06-09 09:58:20 51°42.004 2°37.378 21.7408 0.284818 1.631592 -0.965744
2010-06-09 09:59:19 51°42.025 2°37.386 21.7397 0.284818 1.631882 -1.000568
2010-06-09 10:00:19 51°42.045 2°37.361 21.74 0.284714 1.631514 -1.000568
2010-06-09 10:01:20 51°42.035 2°37.337 21.7326 0.284714 1.631937 -0.965744
2010-06-09 10:02:20 51°42.01 2°37.316 21.7349 0.284714 1.632306 -0.965744
2010-06-09 10:03:19 51°41.984 2°37.28 21.7361 0.284714 1.632729 -0.93092
2010-06-09 10:04:19 51°41.953 2°37.291 21.7304 0.284609 1.632361 -1.000568
2010-06-09 10:05:19 51°41.939 2°37.309 21.7329 0.284505 1.632205 -1.000568
2010-06-09 10:06:19 51°41.936 2°37.335 21.7297 0.284505 1.632443 -1.000568
2010-06-09 10:07:56 51°41.937 2°37.383 21.7287 0.284401 1.632155 -0.965744
2010-06-09 10:10:15 51°41.921 2°37.382 21.726 0.284297 1.632051 -0.965744
2010-06-09 10:11:15 51°41.922 2°37.348 21.7244 0.284192 1.631577 -1.000568
2010-06-09 10:12:16 51°41.922 2°37.322 21.7228 0.284192 1.63171 -1.000568
2010-06-09 10:13:16 51°41.932 2°37.307 21.7221 0.284088 1.631395 -0.965744
2010-06-09 10:14:16 51°41.945 2°37.302 21.7211 0.284088 1.63158 -0.965744
2010-06-09 10:15:15 51°41.958 2°37.311 21.7209 0.283984 1.631185 -1.000568
2010-06-09 10:16:16 51°41.973 2°37.328 21.7201 0.283984 1.63145 -0.965744
2010-06-09 10:17:16 51°41.986 2°37.352 21.7202 0.283984 1.631768 -0.965744
2010-06-09 10:18:15 51°41.996 2°37.383 21.7129 0.283984 1.632032 -0.965744
2010-06-09 10:19:15 51°42.008 2°37.401 21.72 0.283984 1.632324 -0.965744
2010-06-09 10:20:15 51°42.006 2°37.371 21.7164 0.283984 1.632642 -1.000568
2010-06-09 10:21:16 51°41.984 2°37.34 21.7115 0.283984 1.632695 -0.965744
2010-06-09 10:22:15 51°41.966 2°37.299 21.7169 0.283984 1.633146 -1.000568
2010-06-09 10:23:16 51°41.945 2°37.298 21.712 0.283984 1.633252 -0.965744
2010-06-09 10:24:15 51°41.94 2°37.314 21.7106 0.283984 1.63365 -0.965744
2010-06-09 10:25:15 51°41.945 2°37.336 21.7097 0.28388 1.633282 -0.965744
2010-06-09 10:26:15 51°41.95 2°37.359 21.7082 0.28388 1.633494 -0.965744
2010-06-09 10:27:16 51°41.954 2°37.383 21.7046 0.28388 1.633707 -0.965744
2010-06-09 10:28:15 51°41.959 2°37.409 21.7052 0.283775 1.633365 -0.965744
2010-06-09 10:29:15 51°41.958 2°37.438 21.6926 0.283775 1.633578 -0.965744
2010-06-09 10:30:15 51°41.917 2°37.398 21.7054 0.283671 1.633262 -0.965744
2010-06-09 10:31:15 51°41.879 2°37.175 21.688 0.283567 1.632654 -0.965744
2010-06-09 10:32:15 51°41.865 2°36.853 21.6876 0.283567 1.632867 -0.965744
2010-06-09 10:33:15 51°41.851 2°36.528 21.6753 0.283567 1.63308 -1.000568
2010-06-09 10:34:16 51°41.835 2°36.2 21.6874 0.283463 1.632605 -1.000568
2010-06-09 10:35:15 51°41.82 2°35.883 21.6856 0.283463 1.632897 -0.93092
2010-06-09 10:36:16 51°41.804 2°35.555 21.6723 0.283463 1.633163 -0.965744
2010-06-09 10:37:15 51°41.789 2°35.233 21.6686 0.283463 1.633482 -0.965744
2010-06-09 10:38:15 51°41.774 2°34.905 21.6783 0.283463 1.633722 -0.965744
2010-06-09 10:39:15 51°41.758 2°34.576 21.67 0.283463 1.634095 -1.000568
2010-06-09 10:40:15 51°41.742 2°34.248 21.67 0.283463 1.634334 -0.965744
2010-06-09 10:41:16 51°41.726 2°33.914 21.67 0.283359 1.634125 -1.000568
2010-06-09 10:42:15 51°41.709 2°33.589 21.6684 0.283359 1.634472 -1.000568
2010-06-09 10:43:16 51°41.694 2°33.252 21.6582 0.283359 1.634819 -0.965744
2010-06-09 10:44:15 51°41.694 2°32.925 21.6596 0.283359 1.635059 -0.965744
2010-06-09 10:45:16 51°41.735 2°32.583 21.6649 0.283359 1.635326 -0.965744
2010-06-09 10:46:15 51°41.775 2°32.253 21.6553 0.283463 1.636282 -0.965744
2010-06-09 10:47:16 51°41.814 2°31.914 21.6611 0.283359 1.635753 -1.000568
2010-06-09 10:48:15 51°41.851 2°31.586 21.6587 0.283359 1.635993 -0.965744
2010-06-09 10:49:15 51°41.874 2°31.251 21.6593 0.283359 1.636261 -0.965744
2010-06-09 10:50:15 51°41.877 2°30.917 21.6495 0.283254 1.635918 -0.965744
2010-06-09 10:51:15 51°41.878 2°30.584 21.6435 0.283254 1.636212 -0.965744
2010-06-09 10:52:15 51°41.872 2°30.251 21.6536 0.283254 1.63664 -1.000568
2010-06-09 10:53:15 51°41.842 2°29.926 21.657 0.283254 1.636881 -0.965744
2010-06-09 10:54:16 51°41.811 2°29.597 21.6517 0.28315 1.636592 -1.000568
2010-06-09 10:55:15 51°41.783 2°29.279 21.6525 0.28315 1.636941 -0.93092
2010-06-09 10:56:16 51°41.755 2°28.949 21.652 0.28315 1.637235 -1.000568
2010-06-09 10:57:15 51°41.718 2°28.633 21.6483 0.28315 1.637503 -1.000568
2010-06-09 10:58:15 51°41.671 2°28.315 21.6479 0.28315 1.637798 -1.000568
2010-06-09 10:59:15 51°41.613 2°28.003 21.6471 0.283046 1.637429 -0.965744
2010-06-09 11:00:15 51°41.558 2°27.689 21.6483 0.283046 1.63767 -0.965744
2010-06-09 11:01:15 51°41.502 2°27.374 21.643 0.283046 1.637992 -0.965744
2010-06-09 11:02:15 51°41.438 2°27.066 21.6424 0.283046 1.638341 -1.000568
2010-06-09 11:03:15 51°41.375 2°26.756 21.6321 0.282942 1.638052 -0.965744
2010-06-09 11:04:15 51°41.313 2°26.445 21.6474 0.282942 1.63824 -1.000568
2010-06-09 11:05:15 51°41.25 2°26.135 21.6484 0.282942 1.638562 -0.965744
2010-06-09 11:06:15 51°41.203 2°25.823 21.6266 0.282942 1.638804 -0.93092
2010-06-09 11:07:15 51°41.197 2°25.582 21.6528 0.282837 1.638489 -0.965744
2010-06-09 11:08:16 51°41.201 2°25.437 21.6599 0.282837 1.638973 -0.965744
2010-06-09 11:09:15 51°41.159 2°25.378 21.6547 0.282837 1.639215 -1.000568
2010-06-09 11:11:55 51°41.012 2°25.043 21.6584 0.282733 1.639464 -0.965744
2010-06-09 11:12:55 51°40.991 2°24.975 21.6572 0.282733 1.63968 -0.965744
2010-06-09 11:13:55 51°41.001 2°24.97 21.6066 0.282629 1.639283 -0.93092
2010-06-09 11:14:55 51°41.014 2°24.968 21.6118 0.282629 1.639472 -1.000568
2010-06-09 11:15:55 51°41.03 2°24.974 21.6049 0.282525 1.639129 -1.000568
2010-06-09 11:16:55 51°41.048 2°24.989 21.5987 0.282525 1.639425 -0.965744
2010-06-09 11:17:55 51°41.065 2°25.011 21.592 0.282421 1.639082 -0.965744
2010-06-09 11:18:55 51°41.082 2°25.037 21.5844 0.282421 1.639325 -0.965744
2010-06-09 11:19:55 51°41.099 2°25.064 21.5726 0.282316 1.638874 -0.965744
2010-06-09 11:20:55 51°41.115 2°25.09 21.5733 0.282316 1.639117 -0.965744
2010-06-09 11:21:54 51°41.13 2°25.115 21.5671 0.282316 1.63936 -1.000568
2010-06-09 11:22:55 51°41.146 2°25.138 21.5636 0.282316 1.639602 -1.000568
2010-06-09 11:23:55 51°41.164 2°25.136 21.5532 0.282212 1.639259 -1.000568
2010-06-09 11:24:55 51°41.193 2°25.105 21.5495 0.282212 1.639583 -0.965744
2010-06-09 11:25:55 51°41.251 2°25.017 21.5386 0.282212 1.640015 -1.000568
2010-06-09 11:26:55 51°41.291 2°24.964 21.5458 0.282212 1.640367 -0.965744
2010-06-09 11:27:58 51°41.313 2°24.994 21.5427 0.282212 1.640637 -0.965744
2010-06-09 11:28:56 51°41.334 2°25.028 21.5355 0.282108 1.640348 -0.965744
2010-06-09 11:29:55 51°41.354 2°25.068 21.5361 0.282108 1.640727 -0.965744
2010-06-09 11:30:54 51°41.371 2°25.105 21.5328 0.282108 1.641078 -0.965744
2010-06-09 11:31:55 51°41.389 2°25.14 21.5281 0.282108 1.641322 -0.965744
2010-06-09 11:32:55 51°41.406 2°25.162 21.5269 0.282004 1.641006 -0.965744
2010-06-09 11:33:55 51°41.415 2°25.154 21.5265 0.282004 1.641358 -1.000568
2010-06-09 11:34:55 51°41.4 2°25.143 21.5131 0.282004 1.641602 -1.000568
2010-06-09 11:35:55 51°41.383 2°25.108 21.5244 0.281899 1.641394 -0.965744
2010-06-09 11:36:55 51°41.365 2°25.079 21.5214 0.281899 1.641638 -0.965744
2010-06-09 11:37:55 51°41.355 2°25.055 21.5168 0.281899 1.641936 -1.000568
2010-06-09 11:38:55 51°41.356 2°25.059 21.5153 0.281795 1.64143 -0.965744
2010-06-09 11:39:54 51°41.36 2°25.066 21.5148 0.281795 1.641647 -0.965744
2010-06-09 11:40:55 51°41.367 2°25.075 21.5201 0.281795 1.641837 -1.000568
2010-06-09 11:41:54 51°41.376 2°25.083 21.5226 0.281691 1.641385 -0.965744
2010-06-09 11:42:55 51°41.387 2°25.093 21.5214 0.281587 1.640933 -1.000568
2010-06-09 11:43:55 51°41.392 2°25.1 21.5218 0.281587 1.641123 -0.965744
2010-06-09 11:44:55 51°41.372 2°25.087 21.5175 0.281482 1.640617 -0.965744
2010-06-09 11:45:55 51°41.348 2°25.064 21.5157 0.281378 1.640219 -1.000568
2010-06-09 11:46:55 51°41.34 2°25.079 21.522 0.281378 1.6403 -1.000568
2010-06-09 11:47:55 51°41.347 2°25.103 21.5223 0.281274 1.63982 -1.000568
2010-06-09 11:48:55 51°41.357 2°25.129 21.5211 0.28117 1.639314 -0.965744
2010-06-09 11:49:55 51°41.369 2°25.155 21.5244 0.281065 1.638861 -1.000568
2010-06-09 11:50:55 51°41.383 2°25.182 21.5237 0.281065 1.639051 -0.965744
2010-06-09 11:51:55 51°41.399 2°25.208 21.5243 0.280961 1.638571 -1.000568
2010-06-09 11:52:55 51°41.415 2°25.232 21.5241 0.280857 1.638119 -0.965744
2010-06-09 11:53:54 51°41.432 2°25.256 21.5225 0.280857 1.638335 -1.000568
2010-06-09 11:54:54 51°41.448 2°25.281 21.3383 0.280753 1.637883 -1.000568
2010-06-09 11:55:55 51°41.453 2°25.327 21.3502 0.280753 1.638045 -1.000568
2010-06-09 11:56:55 51°41.405 2°25.336 21.342 0.280648 1.637728 -0.965744
2010-06-09 11:57:55 51°41.274 2°25.223 21.3941 0.280648 1.637864 -0.965744
2010-06-09 11:58:55 51°41.105 2°25.073 21.381 0.280544 1.637302 -0.965744
2010-06-09 11:59:55 51°40.927 2°24.943 21.4029 0.280544 1.637492 -1.000568
2010-06-09 12:00:55 51°40.741 2°24.843 21.3873 0.28044 1.63712 -0.965744
2010-06-09 12:01:55 51°40.555 2°24.743 21.3976 0.28044 1.637337 -1.000568
2010-06-09 12:02:55 51°40.37 2°24.641 21.4008 0.280336 1.636911 -0.965744
2010-06-09 12:03:55 51°40.184 2°24.538 21.4081 0.280336 1.637101 -0.965744
2010-06-09 12:04:55 51°39.995 2°24.439 21.3799 0.280336 1.637264 -0.965744
2010-06-09 12:05:55 51°39.797 2°24.485 21.429 0.280231 1.636811 -0.965744
2010-06-09 12:06:55 51°39.597 2°24.566 21.4176 0.280231 1.636974 -1.000568
2010-06-09 12:07:55 51°39.404 2°24.69 21.429 0.280127 1.636547 -0.965744
2010-06-09 12:08:55 51°39.213 2°24.833 21.4219 0.280127 1.636765 -0.965744
2010-06-09 12:09:55 51°39.021 2°24.971 21.4241 0.280023 1.63623 -1.000568
2010-06-09 12:10:55 51°38.829 2°25.106 21.4166 0.280023 1.636392 -1.000568
2010-06-09 12:11:55 51°38.637 2°25.245 21.4259 0.279919 1.635966 -1.000568
2010-06-09 12:15:01 51°38.047 2°25.69 21.4363 0.279815 1.635811 -1.000568
2010-06-09 12:16:01 51°37.899 2°25.941 21.4461 0.279815 1.636055 -0.965744
2010-06-09 12:17:01 51°37.764 2°26.224 21.4344 0.27971 1.635466 -1.000568
2010-06-09 12:18:01 51°37.628 2°26.505 21.4441 0.27971 1.635601 -1.000568
2010-06-09 12:19:01 51°37.491 2°26.784 21.4407 0.279606 1.635093 -1.000568
2010-06-09 12:20:01 51°37.355 2°27.066 21.4379 0.279606 1.635229 -0.965744
2010-06-09 12:21:01 51°37.218 2°27.349 21.4423 0.279502 1.634748 -1.000568
2010-06-09 12:22:01 51°37.08 2°27.632 21.4352 0.279502 1.634883 -1.000568
2010-06-09 12:23:01 51°36.941 2°27.917 21.4375 0.279502 1.635046 -0.965744
2010-06-09 12:24:01 51°36.802 2°28.201 21.4497 0.279398 1.634565 -1.035392
2010-06-09 12:25:01 51°36.616 2°28.357 21.4369 0.279398 1.634701 -1.000568
2010-06-09 12:26:01 51°36.414 2°28.402 21.4427 0.279398 1.63481 -0.965744
2010-06-09 12:27:01 51°36.217 2°28.364 21.4417 0.279293 1.63441 -1.000568
2010-06-09 12:28:01 51°36.039 2°28.218 21.4334 0.279293 1.6346 -1.035392
2010-06-09 12:29:01 51°35.864 2°28.067 21.4331 0.279293 1.634709 -1.000568
2010-06-09 12:30:01 51°35.687 2°27.922 21.435 0.279293 1.634872 -1.000568
2010-06-09 12:31:01 51°35.51 2°27.781 21.4339 0.279189 1.634336 -1.000568
2010-06-09 12:32:01 51°35.332 2°27.641 21.4306 0.279189 1.634472 -1.000568
2010-06-09 12:33:01 51°35.156 2°27.502 21.4333 0.279085 1.63399 -0.965744
2010-06-09 12:34:01 51°34.983 2°27.363 21.4316 0.279085 1.634153 -0.965744
2010-06-09 12:35:01 51°34.808 2°27.225 21.4329 0.279085 1.634316 -1.000568
2010-06-09 12:36:01 51°34.634 2°27.084 21.4351 0.279085 1.634452 -0.965744
2010-06-09 12:37:01 51°34.46 2°26.942 21.4341 0.278981 1.634025 -1.000568
2010-06-09 12:38:01 51°34.285 2°26.8 21.4334 0.278981 1.634161 -1.000568
2010-06-09 12:39:01 51°34.11 2°26.657 21.4335 0.278981 1.634324 -1.000568
2010-06-09 12:40:01 51°33.933 2°26.512 21.4331 0.278981 1.634487 -1.000568
2010-06-09 12:41:01 51°33.756 2°26.364 21.4372 0.278876 1.634005 -1.000568
2010-06-09 12:42:01 51°33.579 2°26.213 21.4333 0.278876 1.634169 -0.965744
2010-06-09 12:43:01 51°33.4 2°26.061 21.4355 0.278876 1.634278 -1.000568
2010-06-09 12:44:01 51°33.222 2°25.911 21.4373 0.278772 1.633795 -0.965744
2010-06-09 12:45:01 51°33.044 2°25.761 21.4349 0.278772 1.633986 -1.000568
2010-06-09 12:46:01 51°32.863 2°25.613 21.4354 0.278772 1.634149 -1.000568
2010-06-09 12:47:01 51°32.681 2°25.461 21.436 0.278668 1.633721 -1.000568
2010-06-09 12:48:01 51°32.499 2°25.311 21.4366 0.278668 1.633912 -1.000568
2010-06-09 12:49:01 51°32.32 2°25.159 21.4375 0.278668 1.634021 -1.000568
2010-06-09 12:50:01 51°32.137 2°25.005 21.4381 0.278564 1.633566 -1.000568
2010-06-09 12:51:01 51°31.952 2°24.847 21.4377 0.278564 1.633675 -0.965744
2010-06-09 12:52:01 51°31.766 2°24.689 21.4382 0.278564 1.633756 -0.965744
2010-06-09 12:53:01 51°31.583 2°24.534 21.4389 0.278564 1.633947 -1.000568
2010-06-09 12:54:01 51°31.395 2°24.381 21.4391 0.278459 1.63341 -1.000568
2010-06-09 12:55:01 51°31.212 2°24.23 21.4409 0.278459 1.633519 -0.965744
2010-06-09 12:56:01 51°31.03 2°24.08 21.4402 0.278459 1.633601 -1.000568
2010-06-09 12:57:01 51°30.848 2°23.924 21.4412 0.278355 1.633118 -1.000568
2010-06-09 12:58:01 51°30.664 2°23.767 21.4449 0.278355 1.633254 -1.000568
2010-06-09 12:59:01 51°30.477 2°23.611 21.4436 0.278355 1.633418 -0.965744
2010-06-09 13:00:01 51°30.292 2°23.455 21.4438 0.278355 1.633554 -1.000568
2010-06-09 13:01:01 51°30.106 2°23.303 21.4451 0.278251 1.633017 -1.000568
2010-06-09 13:02:01 51°29.922 2°23.146 21.446 0.278251 1.633153 -0.965744
2010-06-09 13:03:01 51°29.737 2°22.992 21.4464 0.278251 1.633344 -0.965744
2010-06-09 13:04:01 51°29.552 2°22.84 21.4461 0.278251 1.633426 -1.000568
2010-06-09 13:05:01 51°29.368 2°22.687 21.4471 0.278251 1.633562 -1.035392
2010-06-09 13:06:01 51°29.185 2°22.532 21.4476 0.278147 1.633052 -0.965744
2010-06-09 13:07:01 51°29.001 2°22.374 21.4431 0.278147 1.633161 -1.000568
2010-06-09 13:08:01 51°28.814 2°22.214 21.4514 0.278042 1.632651 -0.965744
2010-06-09 13:09:01 51°28.624 2°22.054 21.4457 0.278042 1.63276 -0.965744
2010-06-09 13:10:01 51°28.433 2°21.895 21.4549 0.278042 1.632896 -0.965744
2010-06-09 13:11:01 51°28.243 2°21.735 21.4492 0.278042 1.632923 -1.000568
2010-06-09 13:12:01 51°28.052 2°21.573 21.4537 0.278042 1.633142 -0.965744
2010-06-09 13:13:01 51°27.86 2°21.417 21.4544 0.277938 1.632604 -1.000568
2010-06-09 13:14:01 51°27.663 2°21.29 21.4495 0.277938 1.632713 -1.000568
2010-06-09 13:17:57 51°27.29 2°20.993 21.4497 0.277834 1.632666 -1.000568
2010-06-09 13:18:56 51°27.28 2°21 21.4554 0.277834 1.632694 -1.000568
2010-06-09 13:19:56 51°27.28 2°21.012 21.4557 0.277834 1.632776 -0.965744
2010-06-09 13:20:56 51°27.283 2°21.025 21.4561 0.27773 1.632292 -1.000568
2010-06-09 13:21:56 51°27.287 2°21.037 21.4536 0.27773 1.632429 -1.000568
2010-06-09 13:22:55 51°27.293 2°21.049 21.4534 0.27773 1.632565 -1.035392
2010-06-09 13:23:56 51°27.301 2°21.06 21.4566 0.277626 1.632081 -1.000568
2010-06-09 13:24:55 51°27.309 2°21.07 21.458 0.277626 1.632273 -0.965744
2010-06-09 13:25:56 51°27.315 2°21.079 21.1885 0.277626 1.632437 -0.965744
2010-06-09 13:26:56 51°27.321 2°21.088 21.2252 0.277626 1.632601 -1.000568
2010-06-09 13:27:57 51°27.328 2°21.096 21.2368 0.277626 1.632765 -1.000568
2010-06-09 13:28:57 51°27.336 2°21.104 21.2345 0.277626 1.632956 -0.965744
2010-06-09 13:29:55 51°27.342 2°21.111 21.2424 0.277626 1.633093 -0.965744
2010-06-09 13:30:57 51°27.348 2°21.119 21.2538 0.277626 1.633257 -1.000568
2010-06-09 13:31:57 51°27.356 2°21.128 21.2476 0.277521 1.632745 -0.965744
2010-06-09 13:32:57 51°27.363 2°21.133 21.2545 0.277521 1.632882 -0.965744
2010-06-09 13:33:55 51°27.369 2°21.138 21.2617 0.277521 1.633019 -0.965744
2010-06-09 13:34:57 51°27.375 2°21.143 21.2625 0.277521 1.633101 -0.965744
2010-06-09 13:35:55 51°27.38 2°21.146 21.2645 0.277521 1.633183 -0.965744
2010-06-09 13:36:57 51°27.387 2°21.15 21.2739 0.277417 1.63259 -0.965744
2010-06-09 13:37:57 51°27.393 2°21.153 21.2693 0.277417 1.632754 -0.965744
2010-06-09 13:38:56 51°27.398 2°21.156 21.2722 0.277417 1.632891 -0.965744
2010-06-09 13:39:57 51°27.404 2°21.159 21.2803 0.277417 1.633 -0.965744
2010-06-09 13:40:57 51°27.409 2°21.162 21.2806 0.277417 1.633164 -0.965744
2010-06-09 13:41:57 51°27.415 2°21.165 21.2797 0.277417 1.633301 -1.000568
2010-06-09 13:42:56 51°27.421 2°21.167 21.2805 0.277313 1.632817 -1.000568
2010-06-09 13:43:57 51°27.426 2°21.169 21.2882 0.277417 1.63363 -0.965744
2010-06-09 13:44:55 51°27.431 2°21.171 21.2838 0.277313 1.633146 -1.000568
2010-06-09 13:45:57 51°27.435 2°21.173 21.2867 0.277313 1.633282 -0.965744
2010-06-09 13:46:57 51°27.44 2°21.174 21.2885 0.277313 1.633419 -1.000568
2010-06-09 13:47:57 51°27.445 2°21.175 21.2908 0.277417 1.634233 -0.965744
2010-06-09 13:48:57 51°27.45 2°21.176 21.289 0.277313 1.633776 -1.000568
2010-06-09 13:49:55 51°27.454 2°21.176 21.2946 0.277313 1.63394 -0.965744
2010-06-09 13:50:57 51°27.459 2°21.175 21.2918 0.277313 1.634077 -1.000568
2010-06-09 13:51:56 51°27.464 2°21.174 21.2934 0.277313 1.634242 -1.000568
2010-06-09 13:52:57 51°27.468 2°21.172 21.2956 0.277313 1.634434 -1.000568
2010-06-09 13:53:57 51°27.473 2°21.171 21.2941 0.277313 1.634599 -0.965744
2010-06-09 13:54:56 51°27.477 2°21.17 21.2927 0.277313 1.634791 -0.965744
2010-06-09 13:55:57 51°27.481 2°21.169 21.294 0.277313 1.634983 -1.000568
2010-06-09 13:56:56 51°27.485 2°21.168 21.2937 0.277313 1.635148 -0.93092
2010-06-09 13:57:57 51°27.489 2°21.167 21.2968 0.277313 1.635313 -1.035392
2010-06-09 13:58:56 51°27.492 2°21.165 21.2947 0.277209 1.634828 -1.000568
2010-06-09 13:59:57 51°27.497 2°21.163 21.2961 0.277209 1.63502 -0.965744
2010-06-09 14:00:56 51°27.492 2°21.17 21.2948 0.277209 1.63513 -0.965744
2010-06-09 14:01:57 51°27.416 2°21.212 21.2972 0.277209 1.635268 -0.965744
2010-06-09 14:02:56 51°27.269 2°21.277 21.3018 0.277209 1.635487 -0.965744
2010-06-09 14:03:57 51°27.075 2°21.352 21.3052 0.277104 1.634947 -1.000568
2010-06-09 14:04:57 51°26.865 2°21.436 21.3044 0.277104 1.635085 -1.000568
2010-06-09 14:05:57 51°26.654 2°21.519 21.3099 0.277104 1.63514 -1.000568
2010-06-09 14:06:57 51°26.441 2°21.6 21.3112 0.277104 1.635222 -1.000568
2010-06-09 14:07:56 51°26.231 2°21.676 21.3092 0.277104 1.635387 -1.000568
2010-06-09 14:08:57 51°26.014 2°21.755 21.3132 0.277 1.634847 -1.000568
2010-06-09 14:09:56 51°25.804 2°21.826 21.3119 0.277 1.634985 -1.000568
2010-06-09 14:10:57 51°25.588 2°21.902 21.3128 0.276896 1.6345 -1.000568
2010-06-09 14:11:56 51°25.38 2°21.977 21.3152 0.276896 1.63461 -1.000568
2010-06-09 14:12:57 51°25.163 2°22.057 21.3158 0.276896 1.63472 -0.965744
2010-06-09 14:13:57 51°24.949 2°22.135 21.316 0.276896 1.634857 -1.000568
2010-06-09 14:14:56 51°24.737 2°22.209 21.3165 0.276792 1.634399 -1.000568
2010-06-09 14:15:57 51°24.518 2°22.287 21.3188 0.276792 1.634537 -1.000568
2010-06-09 14:16:57 51°24.302 2°22.361 21.3185 0.276792 1.634619 -1.000568
2010-06-09 14:17:57 51°24.087 2°22.435 21.3205 0.276792 1.634784 -1.000568
2010-06-09 14:21:07 51°23.412 2°22.661 21.3219 0.276687 1.634547 -1.000568
2010-06-09 14:22:07 51°23.196 2°22.733 21.3239 0.276687 1.634602 -0.965744
2010-06-09 14:23:05 51°22.988 2°22.804 21.3264 0.276583 1.634116 -1.000568
2010-06-09 14:24:07 51°22.767 2°22.878 21.3249 0.276583 1.634171 -1.000568
2010-06-09 14:25:07 51°22.552 2°22.949 21.3246 0.276583 1.634254 -0.965744
2010-06-09 14:26:07 51°22.337 2°23.022 21.3283 0.276479 1.633823 -1.000568
2010-06-09 14:27:07 51°22.122 2°23.096 21.3296 0.276479 1.633988 -1.000568
2010-06-09 14:28:07 51°21.908 2°23.173 21.3322 0.277 1.637437 -0.965744
2010-06-09 14:29:07 51°21.694 2°23.249 21.3293 0.277 1.63752 -0.965744
2010-06-09 14:30:07 51°21.479 2°23.323 21.326 0.276896 1.637006 -1.000568
2010-06-09 14:31:07 51°21.264 2°23.391 21.3311 0.276792 1.636493 -1.000568
2010-06-09 14:32:07 51°21.048 2°23.46 21.3353 0.276688 1.635952 -0.965744
2010-06-09 14:33:07 51°20.833 2°23.528 21.3273 0.276688 1.636062 -0.965744
2010-06-09 14:34:07 51°20.618 2°23.603 21.3353 0.276688 1.636145 -1.000568
2010-06-09 14:35:07 51°20.405 2°23.687 21.3374 0.276583 1.635576 -1.000568
2010-06-09 14:36:07 51°20.19 2°23.769 21.3364 0.276583 1.635769 -0.965744
2010-06-09 14:37:07 51°19.974 2°23.852 21.3424 0.276479 1.635228 -1.000568
2010-06-09 14:38:07 51°19.758 2°23.935 21.3332 0.276479 1.635283 -0.965744
2010-06-09 14:39:07 51°19.543 2°24.026 21.3345 0.276375 1.63477 -0.965744
2010-06-09 14:40:07 51°19.33 2°24.127 21.3451 0.276375 1.634908 -1.000568
2010-06-09 14:41:05 51°19.125 2°24.224 21.3471 0.276375 1.634963 -0.965744
2010-06-09 14:42:07 51°18.905 2°24.322 21.3502 0.276271 1.634394 -0.965744
2010-06-09 14:43:07 51°18.694 2°24.417 21.3486 0.276271 1.634504 -1.000568
2010-06-09 14:44:05 51°18.493 2°24.516 21.3441 0.276166 1.634018 -1.000568
2010-06-09 14:45:05 51°18.286 2°24.619 21.3494 0.276062 1.633421 -0.965744
2010-06-09 14:46:05 51°18.078 2°24.723 21.3489 0.276062 1.633532 -1.000568
2010-06-09 14:47:07 51°17.859 2°24.814 21.3399 0.276062 1.633587 -1.000568
2010-06-09 14:48:05 51°17.651 2°24.883 21.3414 0.276062 1.633725 -0.965744
2010-06-09 14:49:07 51°17.428 2°24.954 21.3541 0.275958 1.6331 -1.035392
2010-06-09 14:50:07 51°17.211 2°25.023 21.3578 0.275958 1.633238 -1.000568
2010-06-09 14:51:05 51°17 2°25.086 21.3689 0.275958 1.633293 -1.000568
2010-06-09 14:52:05 51°16.789 2°25.19 21.3594 0.275854 1.632752 -0.965744
2010-06-09 14:53:07 51°16.587 2°25.289 21.3671 0.275854 1.632862 -1.000568
2010-06-09 14:54:07 51°16.45 2°25.366 21.374 0.275854 1.632945 -1.000568
2010-06-09 14:55:07 51°16.36 2°25.427 21.3721 0.275854 1.633055 -1.000568
2010-06-09 14:56:07 51°16.301 2°25.494 21.3741 0.275854 1.633082 -0.965744
2010-06-09 14:57:05 51°16.25 2°25.555 21.3741 0.275749 1.632541 -0.965744
2010-06-09 14:58:07 51°16.207 2°25.6 21.3747 0.275749 1.632651 -1.000568
2010-06-09 14:59:05 51°16.172 2°25.632 21.3729 0.275749 1.632761 -1.035392
2010-06-09 15:00:07 51°16.133 2°25.661 21.3763 0.275749 1.632872 -0.965744
2010-06-09 15:01:07 51°16.116 2°25.663 21.3775 0.275645 1.632302 -1.000568
2010-06-09 15:02:05 51°16.106 2°25.653 21.3836 0.275645 1.632412 -1.000568
2010-06-09 15:03:06 51°16.098 2°25.636 21.3827 0.275645 1.632495 -1.000568
2010-06-09 15:04:07 51°16.093 2°25.614 21.3878 0.275645 1.632633 -1.000568
2010-06-09 15:05:06 51°16.09 2°25.588 21.3912 0.275645 1.632743 -1.000568
2010-06-09 15:06:07 51°16.086 2°25.564 21.3944 0.275645 1.632854 -1.000568
2010-06-09 15:07:07 51°16.082 2°25.541 21.3939 0.275645 1.632992 -1.000568
2010-06-09 15:08:05 51°16.079 2°25.52 21.3974 0.275645 1.633075 -1.000568
2010-06-09 15:09:07 51°16.075 2°25.498 21.4017 0.275645 1.633185 -1.000568
2010-06-09 15:10:07 51°16.072 2°25.476 21.4091 0.275645 1.633296 -0.965744
2010-06-09 15:11:07 51°16.069 2°25.452 21.413 0.275645 1.633406 -1.000568
2010-06-09 15:12:07 51°16.066 2°25.429 21.4201 0.275645 1.633517 -1.000568
2010-06-09 15:13:05 51°16.065 2°25.405 21.4238 0.275645 1.633655 -0.965744
2010-06-09 15:14:07 51°16.064 2°25.378 21.4288 0.275645 1.633793 -1.000568
2010-06-09 15:15:07 51°16.064 2°25.346 21.4361 0.275645 1.633876 -1.000568
2010-06-09 15:16:07 51°16.063 2°25.315 21.4422 0.275541 1.633389 -1.000568
2010-06-09 15:17:07 51°16.06 2°25.291 21.4475 0.275541 1.633527 -0.965744
2010-06-09 15:18:07 51°16.057 2°25.269 21.4519 0.275541 1.633665 -0.965744
2010-06-09 15:19:06 51°16.052 2°25.249 21.4577 0.275541 1.633831 -1.000568
2010-06-09 15:20:07 51°16.048 2°25.228 21.4658 0.275541 1.633942 -0.965744
2010-06-09 15:21:05 51°16.043 2°25.207 21.4702 0.275541 1.634052 -1.000568
2010-06-09 15:24:49 51°16.025 2°25.13 21.4876 0.275541 1.634495 -1.000568
2010-06-09 15:25:49 51°16.019 2°25.11 21.5007 0.275541 1.634633 -1.000568
2010-06-09 15:26:48 51°16.013 2°25.089 21.509 0.275437 1.634118 -1.000568
2010-06-09 15:27:49 51°16.006 2°25.069 21.5167 0.275541 1.63491 -0.965744
2010-06-09 15:28:49 51°15.998 2°25.049 21.5239 0.275437 1.63434 -1.000568
2010-06-09 15:29:49 51°15.99 2°25.029 21.5289 0.275437 1.634478 -1.035392
2010-06-09 15:30:49 51°15.981 2°25.008 21.5348 0.275437 1.634617 -1.000568
2010-06-09 15:31:49 51°15.973 2°24.988 21.543 0.275437 1.634727 -1.000568
2010-06-09 15:32:49 51°15.965 2°24.967 21.5482 0.275437 1.634811 -1.000568
2010-06-09 15:33:48 51°15.957 2°24.947 21.5563 0.275437 1.634921 -1.000568
2010-06-09 15:34:49 51°15.948 2°24.926 21.564 0.275437 1.635032 -0.965744
2010-06-09 15:35:49 51°15.939 2°24.906 21.57 0.275332 1.634572 -1.000568
2010-06-09 15:36:49 51°15.929 2°24.887 21.5793 0.275437 1.635337 -0.965744
2010-06-09 15:37:49 51°15.92 2°24.868 21.5847 0.275332 1.634794 -1.000568
2010-06-09 15:38:49 51°15.91 2°24.849 21.5961 0.275332 1.634933 -0.965744
2010-06-09 15:39:49 51°15.9 2°24.83 21.6008 0.275332 1.635071 -1.000568
2010-06-09 15:40:49 51°15.89 2°24.811 21.6063 0.275332 1.63521 -1.000568
2010-06-09 15:41:49 51°15.873 2°24.824 21.6114 0.275332 1.635376 -1.000568
2010-06-09 15:42:49 51°15.892 2°24.995 21.6466 0.275332 1.635376 -1.000568
2010-06-09 15:43:49 51°15.914 2°25.256 21.6595 0.275332 1.635487 -1.000568
2010-06-09 15:44:49 51°15.902 2°25.532 21.6633 0.275332 1.635765 -1.000568
2010-06-09 15:45:49 51°15.888 2°25.83 21.6932 0.275332 1.635904 -1.000568
2010-06-09 15:46:49 51°15.872 2°26.131 21.6126 0.275332 1.636042 -0.965744
2010-06-09 15:47:49 51°15.862 2°26.432 21.2966 0.275228 1.635582 -1.000568
2010-06-09 15:48:49 51°15.9 2°26.729 21.3737 0.275228 1.635554 -1.000568
2010-06-09 15:49:49 51°15.945 2°27.033 21.3857 0.275228 1.635665 -0.965744
2010-06-09 15:50:49 51°15.984 2°27.342 21.383 0.275228 1.635776 -1.000568
2010-06-09 15:51:49 51°16.023 2°27.654 21.3864 0.275124 1.635316 -0.965744
2010-06-09 15:52:49 51°16.059 2°27.969 21.3995 0.275124 1.635455 -0.965744
2010-06-09 15:53:49 51°16.094 2°28.286 21.4044 0.275124 1.635594 -1.000568
2010-06-09 15:54:49 51°16.126 2°28.598 21.4273 0.275124 1.635733 -0.965744
2010-06-09 15:55:50 51°16.158 2°28.914 21.4137 0.275124 1.635872 -1.000568
2010-06-09 15:56:49 51°16.189 2°29.219 21.4466 0.275124 1.635955 -1.000568
2010-06-09 15:57:49 51°16.221 2°29.53 21.4257 0.275124 1.636094 -0.965744
2010-06-09 15:58:49 51°16.242 2°29.842 21.4579 0.275124 1.636177 -1.035392
2010-06-09 15:59:49 51°16.235 2°30.157 21.4469 0.275124 1.636372 -1.000568
2010-06-09 16:00:49 51°16.262 2°30.466 21.4725 0.275124 1.636567 -1.000568
2010-06-09 16:01:49 51°16.365 2°30.736 21.4719 0.27502 1.635995 -1.035392
2010-06-09 16:02:49 51°16.48 2°30.999 21.4874 0.27502 1.636106 -0.965744
2010-06-09 16:03:49 51°16.593 2°31.265 21.4811 0.27502 1.636273 -1.000568
2010-06-09 16:04:49 51°16.707 2°31.531 21.4908 0.27502 1.636412 -1.000568
2010-06-09 16:05:49 51°16.821 2°31.8 21.488 0.27502 1.636523 -1.000568
2010-06-09 16:06:49 51°16.934 2°32.071 21.5073 0.27502 1.63669 -1.035392
2010-06-09 16:07:49 51°17.045 2°32.345 21.5101 0.27502 1.636857 -1.000568
2010-06-09 16:08:49 51°17.158 2°32.618 21.5276 0.27502 1.636996 -1.000568
2010-06-09 16:09:49 51°17.268 2°32.892 21.5215 0.27502 1.637108 -1.000568
2010-06-09 16:10:49 51°17.381 2°33.165 21.5289 0.274916 1.636591 -1.000568
2010-06-09 16:11:49 51°17.494 2°33.437 21.5326 0.274916 1.636758 -1.000568
2010-06-09 16:12:49 51°17.605 2°33.709 21.5434 0.274916 1.636842 -0.965744
2010-06-09 16:13:49 51°17.718 2°33.975 21.5504 0.274916 1.637009 -1.000568
2010-06-09 16:14:49 51°17.781 2°34.274 21.5411 0.274916 1.637148 -0.965744
2010-06-09 16:15:49 51°17.792 2°34.592 21.5507 0.274916 1.637343 -1.000568
2010-06-09 16:16:49 51°17.784 2°34.908 21.5538 0.274916 1.637539 -1.000568
2010-06-09 16:17:49 51°17.779 2°35.22 21.5873 0.274916 1.637678 -0.965744
2010-06-09 16:18:49 51°17.716 2°35.511 21.5645 0.274811 1.637133 -1.000568
2010-06-09 16:19:49 51°17.601 2°35.765 21.5771 0.274811 1.637328 -1.000568
2010-06-09 16:20:49 51°17.512 2°36.048 21.58 0.274811 1.637384 -1.000568
2010-06-09 16:21:49 51°17.446 2°36.346 21.5776 0.274811 1.637663 -1.000568
2010-06-09 16:22:49 51°17.4 2°36.654 21.5844 0.274707 1.637035 -0.965744
2010-06-09 16:23:49 51°17.354 2°36.965 21.587 0.274707 1.637174 -0.965744
2010-06-09 16:24:49 51°17.308 2°37.275 21.5875 0.274707 1.637369 -1.000568
2010-06-09 16:25:53 51°17.262 2°37.607 21.5909 0.274707 1.637509 -1.000568
2010-06-09 16:27:22 51°17.2 2°38.071 21.5984 0.274603 1.637048 -1.000568
2010-06-09 16:28:22 51°17.159 2°38.385 21.5993 0.274603 1.637187 -1.000568
2010-06-09 16:29:23 51°17.118 2°38.704 21.6068 0.274603 1.637327 -1.000568
2010-06-09 16:30:23 51°17.079 2°39.01 21.611 0.274499 1.636809 -1.000568
2010-06-09 16:31:23 51°16.981 2°39.284 21.6183 0.274499 1.636893 -1.000568
2010-06-09 16:32:23 51°16.806 2°39.475 21.6178 0.274499 1.637033 -1.000568
2010-06-09 16:33:22 51°16.621 2°39.65 21.6214 0.274394 1.636627 -0.965744
2010-06-09 16:34:22 51°16.444 2°39.855 21.6246 0.274394 1.636599 -1.000568
2010-06-09 16:35:23 51°16.267 2°40.073 21.6266 0.274394 1.636711 -0.965744
2010-06-09 16:36:23 51°16.096 2°40.292 21.6295 0.27429 1.636165 -1.000568
2010-06-09 16:37:22 51°15.932 2°40.513 21.6328 0.27429 1.636221 -1.000568
2010-06-09 16:38:23 51°15.787 2°40.776 21.6353 0.274186 1.635648 -0.965744
2010-06-09 16:39:23 51°15.647 2°41.037 21.6397 0.274186 1.635676 -1.000568
2010-06-09 16:40:23 51°15.514 2°41.305 21.6431 0.274186 1.635787 -1.000568
2010-06-09 16:41:23 51°15.391 2°41.581 21.6481 0.274082 1.635186 -1.000568
2010-06-09 16:42:23 51°15.268 2°41.86 21.6513 0.274082 1.63527 -1.000568
2010-06-09 16:43:23 51°15.183 2°42.164 21.6575 0.274082 1.635437 -1.000568
2010-06-09 16:44:23 51°15.126 2°42.478 21.6593 0.273977 1.634863 -1.000568
2010-06-09 16:45:23 51°15.12 2°42.795 21.6636 0.273977 1.634891 -0.965744
2010-06-09 16:46:23 51°15.12 2°43.113 21.6672 0.273977 1.634975 -1.000568
2010-06-09 16:47:23 51°15.113 2°43.427 21.6691 0.273873 1.634457 -1.035392
2010-06-09 16:48:23 51°15.104 2°43.741 21.6729 0.273873 1.634541 -0.965744
2010-06-09 16:49:23 51°15.094 2°44.055 21.6756 0.273873 1.634597 -0.965744
2010-06-09 16:50:23 51°15.084 2°44.367 21.6784 0.273769 1.634023 -1.000568
2010-06-09 16:51:22 51°15.075 2°44.673 21.6823 0.273769 1.634107 -1.000568
2010-06-09 16:52:23 51°15.064 2°44.989 21.6867 0.273769 1.634163 -0.965744
2010-06-09 16:53:23 51°15.054 2°45.299 21.6886 0.273665 1.633589 -0.965744
2010-06-09 16:54:22 51°15.043 2°45.604 21.6926 0.273665 1.6337 -1.000568
2010-06-09 16:55:23 51°15.033 2°45.921 21.6957 0.273665 1.633784 -1.000568
2010-06-09 16:56:23 51°15.022 2°46.233 21.7015 0.273665 1.633812 -1.000568
2010-06-09 16:57:23 51°15.01 2°46.547 21.7044 0.273561 1.633182 -1.000568
2010-06-09 16:58:23 51°14.999 2°46.862 21.7091 0.273561 1.633182 -0.965744
2010-06-09 16:59:23 51°14.988 2°47.18 21.7148 0.273561 1.633322 -1.035392
2010-06-09 17:00:22 51°14.974 2°47.495 21.7172 0.273561 1.633405 -0.965744
2010-06-09 17:01:22 51°14.963 2°47.813 21.7221 0.273456 1.632803 -0.965744
2010-06-09 17:02:22 51°14.951 2°48.128 21.7277 0.273456 1.632803 -1.000568
2010-06-09 17:03:22 51°14.938 2°48.444 21.7317 0.273456 1.632803 -0.965744
2010-06-09 17:04:22 51°14.925 2°48.756 21.7375 0.273456 1.632943 -1.035392
2010-06-09 17:05:22 51°14.909 2°49.077 21.7416 0.273456 1.632999 -1.000568
2010-06-09 17:06:22 51°14.894 2°49.4 21.7446 0.273352 1.632425 -1.000568
2010-06-09 17:07:22 51°14.879 2°49.725 21.7502 0.273352 1.63248 -1.000568
2010-06-09 17:08:22 51°14.863 2°50.048 21.7577 0.273352 1.632508 -1.000568
2010-06-09 17:09:22 51°14.846 2°50.37 21.7635 0.273352 1.632564 -0.965744
2010-06-09 17:10:22 51°14.829 2°50.691 21.7658 0.273248 1.631962 -0.965744
2010-06-09 17:11:22 51°14.811 2°51.01 21.7744 0.273248 1.632074 -1.000568
2010-06-09 17:12:22 51°14.793 2°51.33 21.7745 0.273248 1.632157 -1.000568
2010-06-09 17:13:22 51°14.777 2°51.651 21.7856 0.273248 1.632185 -0.965744
2010-06-09 17:14:22 51°14.76 2°51.975 21.7859 0.273248 1.632241 -1.000568
2010-06-09 17:15:22 51°14.744 2°52.3 21.7915 0.273144 1.631611 -1.000568
2010-06-09 17:16:22 51°14.727 2°52.627 21.7983 0.273144 1.631639 -0.965744
2010-06-09 17:17:22 51°14.71 2°52.952 21.7993 0.273144 1.631667 -1.000568
2010-06-09 17:18:23 51°14.692 2°53.281 21.8123 0.273039 1.631092 -0.965744
2010-06-09 17:19:22 51°14.685 2°53.601 21.8079 0.273144 1.631778 -1.000568
2010-06-09 17:20:22 51°14.668 2°53.934 21.8132 0.273144 1.631834 -1.000568
2010-06-09 17:21:22 51°14.643 2°54.259 21.8259 0.273039 1.631288 -1.000568
2010-06-09 17:22:22 51°14.607 2°54.579 21.8313 0.273039 1.631343 -0.965744
2010-06-09 17:23:22 51°14.543 2°54.899 21.8308 0.273039 1.631343 -1.000568
2010-06-09 17:24:22 51°14.391 2°55.133 21.8461 0.273039 1.631483 -1.035392
2010-06-09 17:25:22 51°14.223 2°55.311 21.8533 0.273039 1.631567 -1.000568
2010-06-09 17:26:22 51°14.08 2°55.446 21.8597 0.273039 1.631594 -1.035392
2010-06-09 17:27:27 51°13.957 2°55.531 21.8815 0.273039 1.63165 -1.000568
2010-06-09 17:28:48 51°13.8 2°55.652 21.8733 0.273039 1.631762 -1.035392
2010-06-09 17:29:47 51°13.725 2°55.77 21.8771 0.272935 1.631076 -1.000568
2010-06-09 17:30:49 51°13.679 2°55.881 21.8879 0.272935 1.631132 -1.035392